| time (UTC) | temp C | wind direction | speed KPH | gust KPH | rain 1hr cm | rain 24hr cm | rain mn cm | humidity % | barometer mb |
| 20260906103019 | 21 | 108 | 8.0 | 14.5 | 0.00 | 0.00 | 0.00 | 91 | 1017.0 |
| 20260906102519 | 21 | 98 | 9.7 | 14.5 | 0.00 | 0.00 | 0.00 | 91 | 1017.0 |
| 20260906102019 | 21 | 88 | 3.2 | 14.5 | 0.00 | 0.00 | 0.00 | 91 | 1017.0 |
| 20260906100519 | 21 | 88 | 3.2 | 9.7 | 0.00 | 0.00 | 0.00 | 91 | 1016.9 |
| 20260906100019 | 21 | 85 | 1.6 | 8.0 | 0.00 | 0.00 | 0.00 | 91 | 1016.8 |
| 20260906095518 | 21 | 107 | 1.6 | 6.4 | 0.00 | 0.00 | 0.00 | 90 | 1016.9 |
| 20260906095018 | 21 | 105 | 4.8 | 6.4 | 0.00 | 0.00 | 0.00 | 90 | 1016.8 |
| 20260906094518 | 21 | 105 | 4.8 | 8.0 | 0.00 | 0.00 | 0.00 | 90 | 1016.7 |
| 20260906094018 | 21 | 90 | 0.0 | 8.0 | 0.00 | 0.00 | 0.00 | 90 | 1016.6 |
| 20260906093519 | 21 | 90 | 3.2 | 8.0 | 0.00 | 0.00 | 0.00 | 90 | 1016.6 |
| 20260906093019 | 21 | 88 | 1.6 | 9.7 | 0.00 | 0.00 | 0.00 | 90 | 1016.5 |
| 20260906092518 | 21 | 74 | 6.4 | 9.7 | 0.00 | 0.00 | 0.00 | 90 | 1016.5 |
| 20260906092018 | 21 | 92 | 4.8 | 11.3 | 0.00 | 0.00 | 0.00 | 90 | 1016.3 |
| 20260906091518 | 21 | 91 | 3.2 | 14.5 | 0.00 | 0.00 | 0.00 | 90 | 1016.2 |
| 20260906091018 | 21 | 90 | 4.8 | 17.7 | 0.00 | 0.00 | 0.00 | 90 | 1016.1 |
| 20260906090519 | 21 | 77 | 3.2 | 17.7 | 0.00 | 0.00 | 0.00 | 90 | 1016.0 |
| 20260906090019 | 22 | 95 | 8.0 | 17.7 | 0.00 | 0.00 | 0.00 | 90 | 1015.9 |
| 20260906085518 | 22 | 69 | 0.0 | 17.7 | 0.00 | 0.00 | 0.00 | 90 | 1016.0 |
| 20260906084519 | 22 | 84 | 11.3 | 17.7 | 0.00 | 0.00 | 0.00 | 90 | 1016.1 |
| 20260906083519 | 22 | 101 | 12.9 | 17.7 | 0.00 | 0.00 | 0.00 | 90 | 1016.0 |
| 20260906083018 | 22 | 102 | 8.0 | 17.7 | 0.00 | 0.00 | 0.00 | 90 | 1016.0 |
| 20260906082019 | 22 | 84 | 4.8 | 14.5 | 0.00 | 0.00 | 0.00 | 89 | 1016.0 |
| 20260906081518 | 22 | 65 | 11.3 | 14.5 | 0.00 | 0.00 | 0.00 | 89 | 1016.1 |
| 20260906081018 | 22 | 70 | 6.4 | 14.5 | 0.00 | 0.00 | 0.00 | 89 | 1016.1 |
| 20260906080519 | 22 | 40 | 1.6 | 14.5 | 0.00 | 0.00 | 0.00 | 89 | 1016.1 |
| 20260906080018 | 22 | 46 | 12.9 | 14.5 | 0.00 | 0.00 | 0.00 | 89 | 1016.2 |
| 20260906075518 | 22 | 79 | 11.3 | 14.5 | 0.00 | 0.00 | 0.00 | 89 | 1016.1 |
| 20260906074518 | 22 | 84 | 9.7 | 14.5 | 0.00 | 0.00 | 0.00 | 89 | 1016.0 |
| 20260906074018 | 22 | 77 | 12.9 | 14.5 | 0.00 | 0.00 | 0.00 | 89 | 1016.0 |
| 20260906073518 | 22 | 76 | 0.0 | 14.5 | 0.00 | 0.00 | 0.00 | 89 | 1016.0 |
| 20260906073018 | 22 | 65 | 4.8 | 14.5 | 0.00 | 0.00 | 0.00 | 89 | 1016.2 |
| 20260906072518 | 22 | 31 | 3.2 | 12.9 | 0.00 | 0.00 | 0.00 | 89 | 1016.2 |
| 20260906072018 | 22 | 82 | 4.8 | 12.9 | 0.00 | 0.00 | 0.00 | 89 | 1016.3 |
| 20260906071519 | 22 | 64 | 3.2 | 14.5 | 0.00 | 0.00 | 0.00 | 89 | 1016.3 |
| 20260906071018 | 22 | 52 | 6.4 | 14.5 | 0.00 | 0.00 | 0.00 | 89 | 1016.3 |
| 20260906070518 | 22 | 61 | 3.2 | 14.5 | 0.00 | 0.00 | 0.00 | 89 | 1016.2 |
| 20260906070018 | 22 | 74 | 4.8 | 17.7 | 0.00 | 0.00 | 0.00 | 89 | 1016.4 |
| 20260906065519 | 22 | 55 | 6.4 | 17.7 | 0.00 | 0.00 | 0.00 | 89 | 1016.4 |
| 20260906065018 | 22 | 69 | 17.7 | 17.7 | 0.00 | 0.00 | 0.00 | 89 | 1016.4 |
| 20260906064018 | 22 | 58 | 14.5 | 14.5 | 0.00 | 0.00 | 0.00 | 88 | 1016.4 |
| 20260906063518 | 22 | 55 | 3.2 | 14.5 | 0.00 | 0.00 | 0.00 | 88 | 1016.5 |
| 20260906063018 | 22 | 43 | 6.4 | 14.5 | 0.00 | 0.00 | 0.00 | 88 | 1016.5 |
| 20260906062518 | 22 | 62 | 11.3 | 12.9 | 0.00 | 0.00 | 0.00 | 88 | 1016.7 |
| 20260906062019 | 23 | 46 | 6.4 | 11.3 | 0.00 | 0.00 | 0.00 | 88 | 1016.9 |
| 20260906061518 | 23 | 59 | 3.2 | 11.3 | 0.00 | 0.00 | 0.00 | 88 | 1016.8 |
| 20260906061018 | 23 | 47 | 4.8 | 11.3 | 0.00 | 0.00 | 0.00 | 88 | 1016.8 |
| 20260906060518 | 23 | 31 | 1.6 | 19.3 | 0.00 | 0.00 | 0.00 | 88 | 1016.7 |
| 20260906060018 | 23 | 63 | 6.4 | 19.3 | 0.00 | 0.00 | 0.00 | 88 | 1016.6 |
| 20260906055518 | 23 | 74 | 8.0 | 12.9 | 0.00 | 0.00 | 0.00 | 88 | 1016.7 |
| 20260906055018 | 23 | 44 | 6.4 | 12.9 | 0.00 | 0.00 | 0.00 | 88 | 1016.6 |
| 20260906054518 | 23 | 49 | 1.6 | 12.9 | 0.00 | 0.00 | 0.00 | 88 | 1016.7 |
| 20260906054018 | 23 | 55 | 6.4 | 16.1 | 0.00 | 0.00 | 0.00 | 87 | 1016.7 |
| 20260906053518 | 23 | 57 | 6.4 | 16.1 | 0.00 | 0.00 | 0.00 | 87 | 1016.6 |
| 20260906053018 | 23 | 75 | 16.1 | 16.1 | 0.00 | 0.00 | 0.00 | 87 | 1016.5 |
| 20260906052518 | 23 | 44 | 9.7 | 11.3 | 0.00 | 0.00 | 0.00 | 87 | 1016.6 |
| 20260906052018 | 23 | 56 | 6.4 | 11.3 | 0.00 | 0.00 | 0.00 | 87 | 1016.5 |
| 20260906051518 | 23 | 49 | 3.2 | 8.0 | 0.00 | 0.00 | 0.00 | 87 | 1016.5 |
| 20260906051018 | 23 | 53 | 4.8 | 11.3 | 0.00 | 0.00 | 0.00 | 87 | 1016.5 |
| 20260906045018 | 23 | 55 | 4.8 | 14.5 | 0.00 | 0.00 | 0.00 | 87 | 1016.1 |
| 20260906044518 | 23 | 67 | 8.0 | 12.9 | 0.00 | 0.00 | 0.00 | 87 | 1016.2 |
| 20260906044018 | 23 | 67 | 3.2 | 12.9 | 0.00 | 0.00 | 0.00 | 87 | 1016.2 |
| 20260906043018 | 24 | 73 | 4.8 | 16.1 | 0.00 | 0.00 | 0.00 | 87 | 1016.1 |
| 20260906042518 | 24 | 79 | 3.2 | 16.1 | 0.00 | 0.00 | 0.00 | 87 | 1016.1 |
| 20260906042018 | 24 | 60 | 6.4 | 12.9 | 0.00 | 0.00 | 0.00 | 87 | 1016.1 |
| 20260906041018 | 24 | 43 | 8.0 | 20.9 | 0.00 | 0.00 | 0.00 | 87 | 1016.2 |
| 20260906040518 | 24 | 94 | 8.0 | 16.1 | 0.00 | 0.00 | 0.00 | 87 | 1016.1 |
| 20260906040018 | 24 | 64 | 11.3 | 16.1 | 0.00 | 0.00 | 0.00 | 87 | 1016.1 |
| 20260906035518 | 24 | 59 | 11.3 | 12.9 | 0.00 | 0.00 | 0.00 | 87 | 1016.0 |
| 20260906035048 | 24 | 64 | 4.8 | 12.9 | 0.00 | 0.00 | 0.00 | 87 | 1016.0 |
| 20260906034018 | 24 | 64 | 4.8 | 12.9 | 0.00 | 0.00 | 0.00 | 87 | 1016.0 |
| 20260906033518 | 24 | 65 | 4.8 | 12.9 | 0.00 | 0.00 | 0.00 | 87 | 1016.1 |
| 20260906033018 | 24 | 53 | 8.0 | 14.5 | 0.00 | 0.00 | 0.00 | 87 | 1016.0 |
| 20260906032518 | 24 | 51 | 3.2 | 14.5 | 0.00 | 0.00 | 0.00 | 87 | 1016.0 |
| 20260906032018 | 24 | 51 | 6.4 | 22.5 | 0.00 | 0.00 | 0.00 | 87 | 1016.0 |
| 20260906031518 | 25 | 59 | 6.4 | 22.5 | 0.00 | 0.00 | 0.00 | 87 | 1016.1 |
| 20260906031018 | 25 | 51 | 6.4 | 12.9 | 0.00 | 0.00 | 0.00 | 87 | 1016.0 |
| 20260906030518 | 25 | 76 | 4.8 | 14.5 | 0.00 | 0.00 | 0.00 | 87 | 1015.9 |
| 20260906025018 | 25 | 31 | 6.4 | 12.9 | 0.00 | 0.00 | 0.00 | 86 | 1015.7 |
| 20260906024518 | 25 | 40 | 1.6 | 9.7 | 0.00 | 0.00 | 0.00 | 85 | 1015.5 |
| 20260906024018 | 25 | 47 | 3.2 | 9.7 | 0.00 | 0.00 | 0.00 | 85 | 1015.4 |
| 20260906022518 | 25 | 49 | 6.4 | 8.0 | 0.00 | 0.00 | 0.00 | 85 | 1015.2 |
| 20260906022019 | 25 | 45 | 4.8 | 8.0 | 0.00 | 0.00 | 0.00 | 85 | 1015.2 |
| 20260906021018 | 25 | 55 | 4.8 | 9.7 | 0.00 | 0.00 | 0.00 | 84 | 1015.0 |
| 20260906020518 | 25 | 22 | 3.2 | 8.0 | 0.00 | 0.00 | 0.00 | 84 | 1015.0 |
| 20260906020018 | 25 | 32 | 1.6 | 8.0 | 0.00 | 0.00 | 0.00 | 84 | 1015.0 |
| 20260906015518 | 25 | 36 | 3.2 | 8.0 | 0.00 | 0.00 | 0.00 | 83 | 1014.8 |
| 20260906015018 | 25 | 29 | 0.0 | 6.4 | 0.00 | 0.00 | 0.00 | 83 | 1014.7 |
| 20260906013518 | 25 | 49 | 6.4 | 6.4 | 0.00 | 0.00 | 0.00 | 83 | 1014.5 |
| 20260906013018 | 26 | 49 | 1.6 | 11.3 | 0.00 | 0.00 | 0.00 | 83 | 1014.5 |
| 20260906012518 | 26 | 76 | 4.8 | 11.3 | 0.00 | 0.00 | 0.00 | 83 | 1014.4 |
| 20260906012018 | 26 | 67 | 1.6 | 11.3 | 0.00 | 0.00 | 0.00 | 83 | 1014.4 |
| 20260906011518 | 26 | 32 | 0.0 | 11.3 | 0.00 | 0.00 | 0.00 | 82 | 1014.4 |
| 20260906011018 | 26 | 60 | 3.2 | 12.9 | 0.00 | 0.00 | 0.00 | 82 | 1014.4 |
| 20260906010518 | 26 | 38 | 6.4 | 12.9 | 0.00 | 0.00 | 0.00 | 82 | 1014.4 |
| 20260906010018 | 26 | 46 | 8.0 | 12.9 | 0.00 | 0.00 | 0.00 | 82 | 1014.3 |
| 20260906005518 | 26 | 43 | 3.2 | 8.0 | 0.00 | 0.00 | 0.00 | 82 | 1014.3 |
| 20260906005018 | 26 | 40 | 1.6 | 9.7 | 0.00 | 0.00 | 0.00 | 82 | 1014.3 |
| 20260906004518 | 26 | 42 | 4.8 | 9.7 | 0.00 | 0.00 | 0.00 | 81 | 1014.3 |
| 20260906004018 | 26 | 44 | 1.6 | 8.0 | 0.00 | 0.00 | 0.00 | 81 | 1014.3 |
| 20260906003518 | 26 | 36 | 4.8 | 8.0 | 0.00 | 0.00 | 0.00 | 81 | 1014.2 |
| 20260906003018 | 26 | 45 | 4.8 | 8.0 | 0.00 | 0.00 | 0.00 | 81 | 1014.2 |
| 20260906002518 | 26 | 40 | 4.8 | 12.9 | 0.00 | 0.00 | 0.00 | 81 | 1014.1 |
| 20260906002018 | 26 | 24 | 3.2 | 12.9 | 0.00 | 0.00 | 0.00 | 81 | 1014.1 |
| 20260906001518 | 27 | 65 | 6.4 | 11.3 | 0.00 | 0.00 | 0.00 | 80 | 1014.2 |
| 20260906001018 | 27 | 50 | 0.0 | 14.5 | 0.00 | 0.00 | 0.00 | 80 | 1014.2 |
| 20260906000518 | 27 | 62 | 6.4 | 14.5 | 0.00 | 0.00 | 0.00 | 80 | 1014.1 |
| 20260906000018 | 27 | 44 | 8.0 | 12.9 | 0.00 | 0.00 | 0.00 | 80 | 1014.1 |
| 20260905235518 | 27 | 58 | 6.4 | 12.9 | 0.00 | 0.00 | 0.00 | 80 | 1014.0 |
| 20260905234518 | 27 | 57 | 3.2 | 14.5 | 0.00 | 0.00 | 0.00 | 79 | 1014.1 |
| 20260905234018 | 27 | 75 | 12.9 | 16.1 | 0.00 | 0.00 | 0.00 | 79 | 1014.1 |
| 20260905233518 | 27 | 59 | 4.8 | 16.1 | 0.00 | 0.00 | 0.00 | 79 | 1014.0 |
| 20260905232518 | 27 | 61 | 11.3 | 19.3 | 0.00 | 0.00 | 0.00 | 79 | 1013.8 |
| 20260905232018 | 28 | 69 | 6.4 | 19.3 | 0.00 | 0.00 | 0.00 | 79 | 1013.9 |
| 20260905231518 | 28 | 78 | 14.5 | 14.5 | 0.00 | 0.00 | 0.00 | 79 | 1013.8 |
| 20260905230017 | 28 | 55 | 9.7 | 16.1 | 0.00 | 0.00 | 0.00 | 79 | 1014.0 |
| 20260905225517 | 28 | 33 | 6.4 | 17.7 | 0.00 | 0.00 | 0.00 | 78 | 1014.0 |
| 20260905225017 | 28 | 69 | 11.3 | 17.7 | 0.00 | 0.00 | 0.00 | 78 | 1013.9 |
| 20260905224517 | 28 | 62 | 8.0 | 16.1 | 0.00 | 0.00 | 0.00 | 79 | 1013.8 |
| 20260905224017 | 28 | 82 | 3.2 | 16.1 | 0.00 | 0.00 | 0.00 | 79 | 1013.8 |
| 20260905223517 | 28 | 76 | 1.6 | 16.1 | 0.00 | 0.00 | 0.00 | 79 | 1013.7 |
| 20260905223018 | 28 | 69 | 8.0 | 16.1 | 0.00 | 0.00 | 0.00 | 79 | 1013.7 |
| 20260905222517 | 28 | 63 | 3.2 | 16.1 | 0.00 | 0.00 | 0.00 | 79 | 1013.6 |
| 20260905221018 | 29 | 82 | 9.7 | 20.9 | 0.00 | 0.00 | 0.00 | 77 | 1013.3 |
| 20260905220017 | 30 | 42 | 9.7 | 22.5 | 0.00 | 0.00 | 0.00 | 77 | 1013.3 |
| 20260905215517 | 30 | 75 | 6.4 | 22.5 | 0.00 | 0.00 | 0.00 | 77 | 1013.1 |
| 20260905214517 | 30 | 47 | 12.9 | 24.1 | 0.00 | 0.00 | 0.00 | 76 | 1013.0 |
| 20260905214017 | 30 | 44 | 9.7 | 22.5 | 0.00 | 0.00 | 0.00 | 76 | 1013.0 |
| 20260905213518 | 30 | 76 | 19.3 | 22.5 | 0.00 | 0.00 | 0.00 | 77 | 1013.1 |
| 20260905212517 | 30 | 67 | 8.0 | 22.5 | 0.00 | 0.00 | 0.00 | 76 | 1013.2 |
| 20260905212017 | 30 | 60 | 6.4 | 22.5 | 0.00 | 0.00 | 0.00 | 76 | 1013.2 |
| 20260905211517 | 30 | 51 | 0.0 | 22.5 | 0.00 | 0.00 | 0.00 | 75 | 1013.3 |
| 20260905211017 | 30 | 78 | 8.0 | 25.7 | 0.00 | 0.00 | 0.00 | 75 | 1013.3 |
| 20260905210517 | 31 | 55 | 8.0 | 25.7 | 0.00 | 0.00 | 0.00 | 75 | 1013.4 |
| 20260905210018 | 31 | 81 | 4.8 | 17.7 | 0.00 | 0.00 | 0.00 | 75 | 1013.5 |
| 20260905205517 | 31 | 53 | 4.8 | 17.7 | 0.00 | 0.00 | 0.00 | 75 | 1013.7 |
| 20260905204517 | 31 | 46 | 6.4 | 16.1 | 0.00 | 0.00 | 0.00 | 74 | 1013.8 |
| 20260905204018 | 31 | 62 | 14.5 | 16.1 | 0.00 | 0.00 | 0.00 | 74 | 1013.9 |
| 20260905203018 | 31 | 35 | 4.8 | 20.9 | 0.00 | 0.00 | 0.00 | 73 | 1014.0 |
| 20260905202018 | 31 | 59 | 6.4 | 22.5 | 0.00 | 0.00 | 0.00 | 73 | 1014.1 |
| 20260905201517 | 31 | 81 | 8.0 | 19.3 | 0.00 | 0.00 | 0.00 | 73 | 1014.2 |
| 20260905201017 | 31 | 63 | 11.3 | 20.9 | 0.00 | 0.00 | 0.00 | 73 | 1014.2 |
| 20260905200017 | 31 | 61 | 14.5 | 20.9 | 0.00 | 0.00 | 0.00 | 74 | 1014.3 |
| 20260905195518 | 31 | 67 | 6.4 | 20.9 | 0.00 | 0.00 | 0.00 | 72 | 1014.4 |
| 20260905195017 | 31 | 41 | 11.3 | 19.3 | 0.00 | 0.00 | 0.00 | 73 | 1014.5 |
| 20260905194517 | 31 | 49 | 11.3 | 19.3 | 0.00 | 0.00 | 0.00 | 74 | 1014.5 |
| 20260905194017 | 31 | 39 | 6.4 | 17.7 | 0.00 | 0.00 | 0.00 | 73 | 1014.5 |
| 20260905193017 | 31 | 52 | 6.4 | 20.9 | 0.00 | 0.00 | 0.00 | 76 | 1014.5 |
| 20260905192517 | 31 | 355 | 8.0 | 19.3 | 0.00 | 0.00 | 0.00 | 75 | 1014.8 |
| 20260905191517 | 31 | 49 | 17.7 | 19.3 | 0.00 | 0.00 | 0.00 | 76 | 1015.0 |
| 20260905191017 | 31 | 360 | 3.2 | 20.9 | 0.00 | 0.00 | 0.00 | 75 | 1015.0 |
| 20260905190017 | 31 | 345 | 12.9 | 19.3 | 0.00 | 0.00 | 0.00 | 76 | 1015.2 |
| 20260905185517 | 31 | 26 | 3.2 | 19.3 | 0.00 | 0.00 | 0.00 | 75 | 1015.3 |
| 20260905185017 | 31 | 360 | 8.0 | 17.7 | 0.00 | 0.00 | 0.00 | 77 | 1015.2 |
| 20260905184517 | 31 | 342 | 9.7 | 20.9 | 0.00 | 0.00 | 0.00 | 78 | 1015.2 |
| 20260905184017 | 31 | 22 | 8.0 | 22.5 | 0.00 | 0.00 | 0.00 | 78 | 1015.1 |
| 20260905183017 | 31 | 27 | 6.4 | 16.1 | 0.00 | 0.00 | 0.00 | 78 | 1015.3 |
| 20260905182517 | 31 | 58 | 3.2 | 16.1 | 0.00 | 0.00 | 0.00 | 77 | 1015.2 |
| 20260905182018 | 31 | 5 | 9.7 | 14.5 | 0.00 | 0.00 | 0.00 | 77 | 1015.1 |
| 20260905181517 | 31 | 19 | 6.4 | 14.5 | 0.00 | 0.00 | 0.00 | 78 | 1015.1 |
| 20260905181017 | 31 | 355 | 4.8 | 14.5 | 0.00 | 0.00 | 0.00 | 78 | 1015.4 |
| 20260905180517 | 31 | 41 | 6.4 | 14.5 | 0.00 | 0.00 | 0.00 | 76 | 1015.4 |
| 20260905180017 | 31 | 355 | 4.8 | 14.5 | 0.00 | 0.00 | 0.00 | 76 | 1015.4 |
| 20260905175517 | 31 | 9 | 6.4 | 14.5 | 0.00 | 0.00 | 0.00 | 76 | 1015.5 |
| 20260905175017 | 31 | 348 | 8.0 | 14.5 | 0.00 | 0.00 | 0.00 | 75 | 1015.4 |
| 20260905174517 | 32 | 355 | 4.8 | 11.3 | 0.00 | 0.00 | 0.00 | 74 | 1015.4 |
| 20260905174017 | 32 | 9 | 0.0 | 11.3 | 0.00 | 0.00 | 0.00 | 75 | 1015.4 |
| 20260905173517 | 32 | 32 | 0.0 | 12.9 | 0.00 | 0.00 | 0.00 | 75 | 1015.3 |
| 20260905173017 | 32 | 360 | 1.6 | 12.9 | 0.00 | 0.00 | 0.00 | 75 | 1015.3 |
| 20260905172517 | 32 | 343 | 0.0 | 9.7 | 0.00 | 0.00 | 0.00 | 75 | 1015.1 |
| 20260905172017 | 32 | 50 | 0.0 | 12.9 | 0.00 | 0.00 | 0.00 | 74 | 1015.2 |
| 20260905171517 | 31 | 32 | 3.2 | 12.9 | 0.00 | 0.00 | 0.00 | 76 | 1015.1 |
| 20260905171017 | 31 | 67 | 6.4 | 16.1 | 0.00 | 0.00 | 0.00 | 77 | 1015.1 |
| 20260905170017 | 31 | 55 | 11.3 | 17.7 | 0.00 | 0.00 | 0.00 | 75 | 1015.1 |
| 20260905165517 | 31 | 49 | 11.3 | 17.7 | 0.00 | 0.00 | 0.00 | 77 | 1015.1 |
| 20260905165017 | 31 | 16 | 11.3 | 14.5 | 0.00 | 0.00 | 0.00 | 77 | 1015.2 |
| 20260905164517 | 31 | 343 | 4.8 | 12.9 | 0.00 | 0.00 | 0.00 | 77 | 1015.2 |
| 20260905164017 | 31 | 65 | 0.0 | 11.3 | 0.00 | 0.00 | 0.00 | 77 | 1015.2 |
| 20260905163517 | 31 | 54 | 8.0 | 11.3 | 0.00 | 0.00 | 0.00 | 78 | 1015.3 |
| 20260905163017 | 30 | 55 | 0.0 | 17.7 | 0.00 | 0.00 | 0.00 | 79 | 1015.3 |
| 20260905162517 | 30 | 85 | 3.2 | 17.7 | 0.00 | 0.00 | 0.00 | 79 | 1015.2 |
| 20260905162017 | 30 | 40 | 9.7 | 14.5 | 0.00 | 0.00 | 0.00 | 80 | 1015.3 |
| 20260905161517 | 30 | 33 | 9.7 | 14.5 | 0.00 | 0.00 | 0.00 | 80 | 1015.3 |
| 20260905161017 | 30 | 26 | 4.8 | 17.7 | 0.00 | 0.00 | 0.00 | 80 | 1015.5 |
| 20260905160517 | 29 | 47 | 3.2 | 17.7 | 0.00 | 0.00 | 0.00 | 80 | 1015.3 |
| 20260905155017 | 29 | 302 | 1.6 | 16.1 | 0.00 | 0.00 | 0.00 | 81 | 1015.3 |
| 20260905154517 | 28 | 86 | 12.9 | 16.1 | 0.00 | 0.00 | 0.00 | 80 | 1015.2 |
| 20260905154017 | 28 | 37 | 11.3 | 17.7 | 0.00 | 0.00 | 0.00 | 80 | 1015.1 |
| 20260905153517 | 28 | 23 | 12.9 | 19.3 | 0.00 | 0.00 | 0.00 | 80 | 1015.2 |
| 20260905153017 | 28 | 20 | 3.2 | 19.3 | 0.00 | 0.00 | 0.00 | 81 | 1015.2 |
| 20260905152517 | 28 | 350 | 1.6 | 11.3 | 0.00 | 0.00 | 0.00 | 82 | 1015.0 |
| 20260905152017 | 28 | 53 | 0.0 | 11.3 | 0.00 | 0.00 | 0.00 | 82 | 1015.0 |
| 20260905151517 | 27 | 350 | 3.2 | 12.9 | 0.00 | 0.00 | 0.00 | 82 | 1014.7 |
| 20260905151017 | 27 | 26 | 11.3 | 12.9 | 0.00 | 0.00 | 0.00 | 83 | 1014.7 |
| 20260905150517 | 27 | 34 | 4.8 | 11.3 | 0.00 | 0.00 | 0.00 | 84 | 1014.7 |
| 20260905150017 | 27 | 5 | 6.4 | 12.9 | 0.00 | 0.00 | 0.00 | 84 | 1014.6 |
| 20260905144517 | 26 | 24 | 0.0 | 11.3 | 0.00 | 0.00 | 0.00 | 87 | 1014.6 |
| 20260905144017 | 26 | 5 | 6.4 | 12.9 | 0.00 | 0.00 | 0.00 | 87 | 1014.4 |
| 20260905143517 | 26 | 12 | 1.6 | 12.9 | 0.00 | 0.00 | 0.00 | 88 | 1014.3 |
| 20260905143017 | 26 | 344 | 3.2 | 9.7 | 0.00 | 0.00 | 0.00 | 89 | 1014.3 |
| 20260905142517 | 26 | 22 | 0.0 | 11.3 | 0.00 | 0.00 | 0.00 | 89 | 1014.3 |
| 20260905142017 | 25 | 54 | 4.8 | 11.3 | 0.00 | 0.00 | 0.00 | 90 | 1014.2 |
| 20260905141517 | 25 | 20 | 4.8 | 8.0 | 0.00 | 0.00 | 0.00 | 91 | 1014.3 |
| 20260905141017 | 25 | 5 | 0.0 | 9.7 | 0.00 | 0.00 | 0.00 | 91 | 1014.3 |
| 20260905140517 | 25 | 17 | 6.4 | 9.7 | 0.00 | 0.00 | 0.00 | 91 | 1014.3 |
| 20260905135517 | 25 | 23 | 1.6 | 6.4 | 0.00 | 0.00 | 0.00 | 92 | 1014.4 |
| 20260905135047 | 24 | 23 | 3.2 | 6.4 | 0.00 | 0.00 | 0.00 | 92 | 1014.2 |
| 20260905134517 | 24 | 20 | 0.0 | 6.4 | 0.00 | 0.00 | 0.00 | 92 | 1014.3 |
| 20260905134017 | 23 | 20 | 0.0 | 6.4 | 0.00 | 0.00 | 0.00 | 92 | 1014.1 |
| 20260905133517 | 23 | 9 | 1.6 | 6.4 | 0.00 | 0.00 | 0.00 | 93 | 1014.0 |
| 20260905133017 | 23 | 17 | 0.0 | 6.4 | 0.00 | 0.00 | 0.00 | 92 | 1014.0 |
| 20260905132517 | 23 | 9 | 3.2 | 6.4 | 0.00 | 0.00 | 0.00 | 92 | 1013.9 |
| 20260905132017 | 23 | 5 | 1.6 | 4.8 | 0.00 | 0.00 | 0.00 | 92 | 1013.7 |
| 20260905131517 | 23 | 5 | 0.0 | 0.0 | 0.00 | 0.00 | 0.00 | 93 | 1013.6 |
| 20260905131016 | 22 | 5 | 0.0 | 0.0 | 0.00 | 0.00 | 0.00 | 92 | 1013.5 |
| 20260905130517 | 22 | 5 | 0.0 | 0.0 | 0.00 | 0.00 | 0.00 | 92 | 1013.6 |
| 20260905130047 | 22 | 5 | 0.0 | 0.0 | 0.00 | 0.00 | 0.00 | 92 | 1013.5 |
| 20260905125517 | 22 | 5 | 0.0 | 0.0 | 0.00 | 0.00 | 0.00 | 92 | 1013.6 |
| 20260905124517 | 22 | 5 | 0.0 | 3.2 | 0.00 | 0.00 | 0.00 | 92 | 1013.6 |
| 20260905124017 | 22 | 5 | 0.0 | 4.8 | 0.00 | 0.00 | 0.00 | 92 | 1013.5 |
| 20260905123517 | 22 | 5 | 3.2 | 4.8 | 0.00 | 0.00 | 0.00 | 92 | 1013.5 |
| 20260905123017 | 22 | 5 | 0.0 | 4.8 | 0.00 | 0.00 | 0.00 | 92 | 1013.4 |
| 20260905122517 | 22 | 5 | 0.0 | 4.8 | 0.00 | 0.00 | 0.00 | 92 | 1013.3 |
| 20260905122017 | 22 | 9 | 1.6 | 4.8 | 0.00 | 0.00 | 0.00 | 92 | 1013.2 |
| 20260905121517 | 22 | 10 | 1.6 | 4.8 | 0.00 | 0.00 | 0.00 | 92 | 1013.1 |
| 20260905121017 | 22 | 10 | 1.6 | 6.4 | 0.00 | 0.00 | 0.00 | 92 | 1013.0 |
| 20260905120516 | 22 | 9 | 3.2 | 6.4 | 0.00 | 0.00 | 0.00 | 92 | 1013.0 |
| 20260905120016 | 22 | 9 | 0.0 | 4.8 | 0.00 | 0.00 | 0.00 | 92 | 1013.1 |
| 20260905115517 | 22 | 5 | 3.2 | 6.4 | 0.00 | 0.00 | 0.00 | 92 | 1013.2 |
| 20260905115016 | 22 | 10 | 1.6 | 6.4 | 0.00 | 0.00 | 0.00 | 92 | 1013.1 |
| 20260905114517 | 22 | 13 | 3.2 | 4.8 | 0.00 | 0.00 | 0.00 | 92 | 1013.0 |
| 20260905114016 | 22 | 12 | 0.0 | 4.8 | 0.00 | 0.00 | 0.00 | 92 | 1012.9 |
| 20260905113517 | 22 | 22 | 1.6 | 4.8 | 0.00 | 0.00 | 0.00 | 92 | 1012.8 |
| 20260905112516 | 22 | 24 | 3.2 | 6.4 | 0.00 | 0.00 | 0.00 | 92 | 1012.8 |
| 20260905112017 | 22 | 22 | 3.2 | 6.4 | 0.00 | 0.00 | 0.00 | 92 | 1012.8 |
| 20260905111516 | 22 | 22 | 1.6 | 8.0 | 0.00 | 0.00 | 0.00 | 92 | 1012.9 |
| 20260905111017 | 22 | 24 | 4.8 | 8.0 | 0.00 | 0.00 | 0.00 | 91 | 1012.8 |
| 20260905110517 | 22 | 18 | 4.8 | 6.4 | 0.00 | 0.00 | 0.00 | 92 | 1012.7 |
| 20260905110017 | 22 | 360 | 3.2 | 6.4 | 0.00 | 0.00 | 0.00 | 92 | 1012.8 |
| 20260905105516 | 22 | 355 | 3.2 | 9.7 | 0.00 | 0.00 | 0.00 | 92 | 1013.0 |
| 20260905105016 | 22 | 355 | 3.2 | 9.7 | 0.00 | 0.00 | 0.00 | 92 | 1013.2 |
| 20260905104516 | 22 | 334 | 8.0 | 8.0 | 0.00 | 0.00 | 0.00 | 92 | 1013.2 |
| 20260905104016 | 22 | 334 | 4.8 | 6.4 | 0.00 | 0.00 | 0.00 | 92 | 1013.1 |